Hourly Weather Roundup
Issued by NWS Central Illinois

Home | Current Version | Previous Version | Text Only | Print | Product List | Glossary On
Versions: 1 2 3 4 5 6 7 8 9 10 11 12 13 14 15 16 17 18 19 20 21 22 23 24 25 26 27 28 29 30 31 32 33 34 35 36 37 38 39 40 41 42 43 44 45 46 47 48 49 50
000
NZUS43 KILX 240810
HWRILX

AREA WEATHER ROUNDUP
NATIONAL WEATHER SERVICE, LINCOLN IL
200 AM CST WED DEC 24 2014


CITY           SKY/WX    TMP DP  RH WIND       PRES   REMARKS
BLOOMINGTON    FAIR      39  35  85 NW6       29.73R WCI  35
CHAMPAIGN      LGT RAIN  42  39  89 N13       29.69R
DECATUR        CLOUDY    41  37  86 N12       29.71R WCI  34
FLORA          MOCLDY    43  41  93 NW6       29.68F
GALESBURG      CLOUDY    36  35  98 W3        29.72R
JACKSONVILLE   CLOUDY    39  36  89 W3        29.72S
LACON          CLOUDY    33  32  96 CALM      29.72R
LAWRENCEVILLE  CLOUDY    45  41  86 N8        29.66S FOG
LITCHFIELD     CLOUDY    39  36  88 N7        29.70F WCI  34
$$


CITY           SKY/WX    TMP DP  RH WIND       PRES   REMARKS
LINCOLN        MOCLDY    40  36  85 N3        29.72S
MACOMB         FAIR      33  32  96 W5        29.75S WCI  28
MATTOON        CLOUDY    42  40  92 N7        29.67S
MT CARMEL AP   CLOUDY    46  41  81 N6        29.66R
OLNEY-NOBLE AP RAIN      43  41  93 N8        29.67S
PARIS          CLOUDY    44  41  89 N3        29.67S
PEORIA         CLOUDY    37  32  82 CALM      29.72R
PONTIAC        CLOUDY    39  36  87 N3        29.73R
RANTOUL        LGT RAIN  42  39  90 NW9       29.70R
ROBINSON       DRIZZLE   45  40  85 N8        29.66F
SPRINGFIELD    CLOUDY    40  34  79 N7        29.72S
TAYLORVILLE    DRIZZLE   37  36  93 N7        29.70F WCI  32
$$

...REGIONAL REPORTS...


CITY           SKY/WX    TMP DP  RH WIND       PRES   REMARKS
CHICAGO O`HARE CLOUDY    39  33  79 NE3       29.68F
KANKAKEE       LGT RAIN  41  38  90 CALM      29.71R
MOLINE         CLOUDY    37  34  89 NW7       29.71R WCI  32
MOUNT VERNON   CLOUDY    43  37  81 N3        29.66F
PITTSFIELD     CLOUDY    37  34  87 CALM      29.73F
QUINCY         MOCLDY    35  32  88 W6        29.72S WCI  30
ROCKFORD       CLOUDY    35  32  88 W3        29.70F
$$


CITY           SKY/WX    TMP DP  RH WIND       PRES   REMARKS
BURLINGTON     CLOUDY    38  36  92 NW8       29.72S WCI  32
CEDAR RAPIDS   CLOUDY    34  34 100 NW6       29.73R FOG     WCI  29
DES MOINES     LGT SNOW  34  32  92 N10       29.79R FOG     WCI  26
KIRKSVILLE     CLOUDY    36  34  92 NW7       29.75F WCI  30
OTTUMWA        CLOUDY    35  33  92 NW9       29.76R WCI  28
ST LOUIS       CLOUDY    42  35  76 NW7       29.72F
$$


CITY           SKY/WX    TMP DP  RH WIND       PRES   REMARKS
TERRE HAUTE    CLOUDY    44  40  85 N6        29.66F
EVANSVILLE     CLOUDY    46  43  89 N13G22    29.63S
INDIANAPOLIS   LGT RAIN  41  40  96 N8        29.64S FOG
LAFAYETTE      CLOUDY    41  40  96 NE3       29.68S
MADISON        FOG       36  35  96 CALM      29.68S VSB 1/4
MILWAUKEE      MOCLDY    36  32  85 CALM      29.69F
$$




USA.gov is the U.S. government's official web portal to all federal, state and local government web resources and services.